Regional Weather Roundup
Issued by NWS

Home | Current Version | Previous Version | Text Only | Print | Product List | Glossary Off
Versions: 1 2 3 4 5 6 7 8 9 10 11 12 13 14 15 16 17 18 19 20 21 22 23 24 25 26 27

000
ASUS45 KBOU 221710
RWRCO

WEATHER ROUNDUP FOR COLORADO
NATIONAL WEATHER SERVICE DENVER/BOULDER CO
1100 AM MDT TUE MAY 22 2018

NOTE: "FAIR" INDICATES FEW OR NO CLOUDS BELOW 12000 FEET WITH NO
SIGNIFICANT WEATHER AND/OR OBSTRUCTIONS TO VISIBILITY.

COZ001>005-013-030-031-221800-
...NORTHWEST COLORADO...

CITY           SKY/WX    TMP DP  RH WIND       PRES   REMARKS
CRAIG          FAIR      66  38  35 VRB3      29.99S
HAYDEN         FAIR      66  42  41 VRB5      30.01S
MEEKER         FAIR      67  41  38 SE7       29.98F
RANGELY        FAIR      70  34  26 W8        29.96R
RABBIT EARS PA FAIR      48  32  53 S6        30.23S
STEAMBOAT SPGS FAIR      66  39  37 E5        30.00F
WALDEN         FAIR      63  30  29 W5        30.10F
$$

COZ006>008-011-221800-
...WEST CENTRAL VALLEYS...

CITY           SKY/WX    TMP DP  RH WIND       PRES   REMARKS
GRAND JUNCTION FAIR      73  36  25 S8        29.91F
MONTROSE       FAIR      68  35  29 E9        30.00F
EAGLE          FAIR      65  34  31 VRB3      30.03F
RIFLE          FAIR      69  35  28 CALM      29.95F
DELTA          FAIR      71  33  24 E5        29.96F
NUCLA          PTSUNNY   70  32  24 W7        30.01F
$$

COZ017>023-064>068-221800-
...SOUTHWEST COLORADO...

CITY           SKY/WX    TMP DP  RH WIND       PRES   REMARKS
DURANGO        PTSUNNY   63  44  50 SE13G22   30.08F
CORTEZ         FAIR      70  44  39 SE16G23   30.02F
PAGOSA SPRINGS FAIR      61  40  46 SE8       30.16F
TELLURIDE      CLOUDY    50  40  69 CALM      30.20S
WOLF CREEK PAS CLOUDY    37  37 100 S16G22    30.39S
$$

COZ009-010-012-014-032>034-037-058>063-221800-
...CENTRAL COLORADO...

CITY           SKY/WX    TMP DP  RH WIND       PRES   REMARKS
ASPEN          FAIR      67  33  28 CALM      30.04F
BUENA VISTA    FAIR      61  35  37 SE13G20   30.14F
COPPER MTN     FAIR      52  23  32 SE18G24   30.32F
BERTHOUD PASS  FAIR      39  30  70 SE16G22   30.36S
COTTONWOOD PAS FAIR      59  39  47 E5        30.23S
GUNNISON       FAIR      59  35  40 VRB5      30.12F
GRANBY         FAIR      63  33  31 CALM      30.10F
KREMMLING      FAIR      66  34  30 CALM      30.07F
LEADVILLE      FAIR      54  32  43 VRB3      30.19F
MONARCH PASS   FAIR      45  32  61 MISG      30.44R
SALIDA         FAIR      63  37  38 S15G24    30.19S
SUNLIGHT       FAIR      52  28  40 SW6       30.28R
WILKERSON PASS FAIR      48  30  49 SW7       30.33S
$$

COZ069>075-221800-
...SAN LUIS VALLEY/SANGRE DE CRISTO MOUNTAINS...

CITY           SKY/WX    TMP DP  RH WIND       PRES   REMARKS
ALAMOSA        FAIR      55  45  68 SW7       30.17F
DEL NORTE      PTSUNNY   51  42  72 E3        30.20F
LA VETA PASS   FAIR      54  41  62 S24G41    30.37S
SAGUACHE       NOT AVBL
$$

COZ035-036-038>040-221800-
...NORTHERN COLORADO FRONT RANGE...

CITY           SKY/WX    TMP DP  RH WIND       PRES   REMARKS
DENVER INTL AP PTSUNNY   70  51  51 NW10      29.97F
AURORA         PTSUNNY   68  46  44 CALM      29.98F
FRONT RANGE AP PTSUNNY   70  50  49 W3        29.98F
ERIE MUNI ARPT FAIR      68  50  53 N6        30.01F
BOULDER MUN AP FAIR      68  50  52 E7        29.97S
CENTENNIAL     PTSUNNY   69  44  40 NE3       29.99F
BROOMFIELD     PTSUNNY   68  46  45 N6        29.99F
FORT COLLINS   FAIR      69  57  65 NE6       29.97F
LONGMONT       FAIR      71  53  52 E6        29.98F
$$

COZ041-046-047-076>085-087-088-221800-
...PIKES PEAK/PALMER DIVIDE AND SOUTHERN FOOTHILLS...

CITY           SKY/WX    TMP DP  RH WIND       PRES   REMARKS
COLO. SPRINGS  PTSUNNY   68  39  34 SE6       30.03F
A. F. ACADEMY  FAIR      68  37  32 S6        30.03F
SCHRIEVER AFB  NOT AVBL
CHEYENNE MTN   FAIR      65  37  34 SE15      30.01F
ELLICOTT         N/A    N/A N/A N/A VRB5      30.02F
FALCON         FAIR      68  36  31 SE6       30.07S
FORT CARSON    PTSUNNY   69  39  34 SE9       30.00F
LIMON          FAIR      64  46  52 SE9       30.01S
MONUMENT HILL  FAIR      64  39  39 CALM      30.08S
CANON CITY     FAIR      73  36  25 S5        29.97F
WALSENBURG     FAIR      75  43  31 S8        30.02S
TRINIDAD       FAIR      72  48  42 N10       30.03F
$$

COZ042>045-048>051-090-091-221800-
...NORTHEAST COLORADO...

CITY           SKY/WX    TMP DP  RH WIND       PRES   REMARKS
GREELEY ARPT   FAIR      67  57  70 VRB3      29.96F
AKRON          FAIR      67  51  56 S9        29.97S
BURLINGTON     FAIR      75  51  43 S17G26    29.98R
WRAY           FAIR      73  52  46 SE10      29.95F
YUMA           FAIR      68  39  34 SE13      29.96S
STERLING       FAIR      68  54  60 CALM      29.94S
HOLYOKE        FAIR      73  52  46 SE9       29.96S
FORT MORGAN    FAIR      68  48  48 E6        29.96S
$$

COZ086-089-092>099-221800-
...SOUTHEAST COLORADO...

CITY           SKY/WX    TMP DP  RH WIND       PRES   REMARKS
PUEBLO         FAIR      69  42  37 SE5       29.96F
LA JUNTA       FAIR      75  46  35 CALM      29.95S
LAMAR          FAIR      80  46  30 SW13G18   29.93S
SPRINGFIELD    NOT AVBL
$$




USA.gov is the U.S. government's official web portal to all federal, state and local government web resources and services.